Погода в Кубе

Погода в Кубе : погода сейчас, прогноз погоды и архив. Всё, что Вы хотите узнать о погоде в Кубе!

Поиск расширенной информации на нашем сайте:

Другие новости

Новости СМИ2

Главная страница сайта

Новости сайта

03.07.2017

Напоминаем, что на нашем специализированном сайте Метеоцентр.Азия вы можете получить высокодетализированные автоматические прогнозы погоды по пунктам России, СНГ и мира в авиационном формате (включающие направление и скорость ветра, видимость, явления погоды, количество и форму облачности, нижнюю и верхнюю границу облачности).

Рекомендуем: Знакомство в Одессе бесплатный сайт Знакомств.

Погода в Кубе - сегодня

Время (UTC), дата Ветер
(°,м/с) 
Видим.   Явления Облачность Т
(°С)
Тd
(°С)
f(%) Тe
(°С)
Pmin
(гПа)
dP
(гПа)
Po
(мм)
O2
(г/м3)
Тmin Tmax R s Состояние
почвы
18 19.02.18 320 (СЗ) 2000 м  слаб. дождь  10/10 300 м 
[Ns]
+1.4 +0.3 92 +1  1021.5  0.6  716  287    +3.7     
21 19.02.18 320 (СЗ) 2000 м  {дождь}  10/10 300 м 
[Ns]
+1.6 +0.2 90 +2  1021.6  0.1  716  287           
00 20.02.18 тихо ()   2000 м  слаб. дождь  10/10 300 м 
[Ns]
+1.3 +0.2 92 +1  1021.5  -0.1  716  287           
03 20.02.18 230 (ЮЗ) 2000 м    ясно 
+0.9 -0.5 90 1021.5  -0.2  716  287           
06 20.02.18 270 (З) 20000 м    3/0 верхняя 
[Ci fib]
+4.4 -0.4 71 +4  1021.2  0.5  716  284  +0.8       
09 20.02.18 090 (В) 10 км    9/9 600 м 
[Sc]
+5.4 +2.2 80 +5  1019.9  -0.9  715  282           
12 20.02.18 110 (В) 2000 м    10/10 300 м 
[Ns]
+4.5 +2 84 +3  1019.4  -0.7  715  283           
15 20.02.18 090 (В) 0050 м  слаб. морось{туман}  ?/?  
+2 +1.7 98 +1  1021.4  1.3  716  286           
21 20.02.18 320 (СЗ) 0200 м  слаб. морось{туман}  ?/?  
+0.4 +0.4 100 -1  1022.3  -0.3  716  288           
00 21.02.18 320 (СЗ) 0200 м  слаб. морось{туман}  ?/?  
+0.1 +0.1 100 +1  1021.6  0.2  716  288           
03 21.02.18 тихо ()   0200 м  слаб. морось{туман}  ?/?  
+0.1 +0.1 100 1023  0.4  716  288           
06 21.02.18 тихо ()   2000 м  слаб. морось{туман}  10/10 300 м 
[St]
+0.4 +0.1 98 1023.5  0.6  717  288  -0.1       
09 21.02.18 140 (ЮВ) 2000 м  {морось}  10/10 300 м 
[St]
+1.1 +0.6 96 1022.8  -0.5  717  287           
12 21.02.18 090 (В) 2000 м  {морось}  10/10 300 м 
[St]
+1.6 +0.5 92 +2  1022.3  -0.4  716  287           
18 21.02.18 тихо ()   0200 м  слаб. морось{туман}  ?/?  
+1.2 +0.9 98 +1  1022.6  0.4  716  287    +1.7  0.6     
21 21.02.18 тихо ()   2000 м  {морось, туман}  10/10 300 м 
[Sc]
+1.2 +0.7 96 +1  1020.5  -0.6  764  306           
00 22.02.18 тихо ()   2000 м  {морось, туман}  10/10 300 м 
[St]
+0.9 +0.4 96 +1  1020.2  -1.2  715  287           
03 22.02.18 тихо ()   2000 м    10/10 300 м 
[St]
+1 +0.5 96 +1  1019.8  -0.4  714  287           
06 22.02.18 тихо ()   10 км    9/9 600 м 
[Sc]
+1.9 +0.6 91 +2  1019.1  -0.4  714  286  +0.8    0.4     
09 22.02.18 тихо ()   10 км    9/9 600 м 
[Sc]
+3 -0.5 78 +3  1017.4  -1.3  713  284           
12 22.02.18 тихо ()   10 км    9/9 600 м 
[Sc]
+2.8 +0.7 86 +3  1016.9  -0.5  713  284           
15 22.02.18 070 (В) 2000 м    10/10 300 м 
[Ns]
+2.2 +1.2 93 +3  1017.6  0.5  713  285           
21 22.02.18 тихо ()   2000 м    9/9 600 м 
[Sc]
+2.3 -0.5 82 +2  1018.8  0.2  714  285           
00 23.02.18 230 (ЮЗ) 2000 м    9/9 600 м 
[Sc]
+2.2 -0.3 84 +2  1018.5  -0.3  714  285           
03 23.02.18 тихо ()   2000 м    9/9 600 м 
[Sc]
+1.8 -0.7 83 +2  1018.3  -0.3  714  286           
Время (UTC), дата Ветер
(°,м/с) 
Видим.   Явления Облачность Т
(°С)
Тd
(°С)
f(%) Тe
(°С)
Pmin
(гПа)
dP
(гПа)
Po
(мм)
O2
(г/м3)
Тmin Tmax R s Состояние
почвы

Для получения пояснительной информации подведите курсор к названию столбца.

ПОГОДА в Кубе - архив

Всё, что Вы хотите узнать о погоде в Кубе - удобно и подробно!

Выберите нужную дату (начиная с 1 января 2015* года) и нажмите кнопку "Найти".
Будут отображены архивные сводки погоды по пункту Куба, начиная с указанной даты.


Отображать данные в формате CSV (для использования в таблицах Excel)


Внимание! Наш архив погоды предназначен исключительно для личного некоммерческого использования в познавательных целях. Если Вам необходимы официальные справки о состоянии погоды (для производственных, юридических, коммерческих и т.п. целей), обращайтесь в органы Росгидромета.

*Примечание: данная дата относится к архиву по метеостанциям СССР (Россия, СНГ, Балтия).
Архив по метеостанциям Зарубежной Европы и Азии (кроме Китая) хранится 10 дней, по другим регионам земного шара (Китай, Африка, Америка, Австралия, Океания) - 1 день.

Куба - район местоположения метеостанции


Название, широта, долгота, высота метеостанции:
Куба 41.4°ш. 48.5°д. 552 м над ур. моря [Азербайджан]

Дополнительная информация

В oтличие oт бoльшинства пoгoдных сайтoв мы публикуем пoдрoбную метеoинфoрмацию в детальнoм прoфессиoнальнoм фoрмате.

Характеристики температуры и влажнoсти вoздуха измеряются на высoте 2 м в тени вдали oт зданий и деревьев.
Скoрoсть ветра измеряется на высoте 10 м (на урoвне рoста челoвека скoрoсть ветра ниже в 1.5-2 раза). Если метеoстанция нахoдится в гoрoде или в лесу, тo скoрoсть ветра занижена на 2-4 м/с пo сравнению с oткрытым местoм. Скoрoсть ветра над акватoриями крупных рек и oзёр, а также на вершинах хoлмoв на 2-5 м/с выше, чем в oбычных услoвиях.
Атмoсфернoе давление в разных тoчках местнoсти мoжет значительнo oтличаться oт давления на метеoстанции, в зависимoсти oт услoвий рельефа (при пoдъёме на 10 м давление пoнижается примернo на 1 мм рт.ст.).